Preview of NWS' New Version of Forecast
This preview is not operational and should not be used for support decisions.

Regional Weather Roundup (RWR)

Issued by National Weather Service (NWS)

                            
000
ASUS43 KBIS 250610
RWRND 

NORTH DAKOTA REGIONAL WEATHER ROUNDUP
NATIONAL WEATHER SERVICE BISMARCK ND
100 AM CDT SUN AUG 25 2019

NOTE: "FAIR" INDICATES FEW OR NO CLOUDS BELOW 12,000 FEET WITH NO
SIGNIFICANT WEATHER AND/OR OBSTRUCTIONS TO VISIBILITY.


NDZ001>003-009>011-017-250700-
NORTHWEST NORTH DAKOTA
  
CITY           SKY/WX    TMP DP  RH WIND       PRES   REMARKS
WILLISTON      CLOUDY    71  60  68 CALM      29.72R                  
6HR MIN TEMP:  69; 6HR MAX TEMP:  85;                                

MINOT          CLOUDY    66  63  90 NE6       29.76F                  
MINOT AFB      LGT RAIN  64  62  93 SE6       29.73F                  
$$
 
NDZ018>021-031>035-040>046-250700-
SOUTHWEST NORTH DAKOTA
  
CITY           SKY/WX    TMP DP  RH WIND       PRES   REMARKS
BISMARCK       PTCLDY    67  62  84 S18G29    29.80F                  
6HR MIN TEMP:  67; 6HR MAX TEMP:  75;                                

DICKINSON      CLOUDY    67  64  90 S12       29.75F                  
GARRISON         N/A     68  63  84 S17       29.75F                  
6HR MIN TEMP:  68; 6HR MAX TEMP:  77;                                

HETTINGER ARPT MOCLDY    64  60  87 SE7       29.81F                  
$$
 
NDZ004>008-012>016-024-026-027-054-250700-
NORTHEAST NORTH DAKOTA
  
CITY           SKY/WX    TMP DP  RH WIND       PRES   REMARKS
GRAND FORKS    MOCLDY    67  55  65 S17G30    29.90F                  
GRND FRKS AFB  MOCLDY    66  57  72 S18G26    29.90S                  
DEVILS LAKE    PTCLDY    68  61  78 S20G28    29.84F                  
$$
 
NDZ022-023-025-028>030-036>039-047>053-250700-
SOUTHEAST NORTH DAKOTA
  
CITY           SKY/WX    TMP DP  RH WIND       PRES   REMARKS
FARGO          PTCLDY    65  56  72 SE15G29   29.96S                  
6HR MIN TEMP:  65; 6HR MAX TEMP:  76;                                

JAMESTOWN      MOCLDY    66  61  84 S14G26    29.88F                  
$$